{"data":{"norad_id":66519,"epoch":"2026-09-20T16:17:55.487616Z","epoch_age_seconds":73721,"freshness":"FRESH","line1":"1 66519U 25265D   26263.67911444  .00009099  00000+0  33984-3 0  9998","line2":"2 66519  42.9989 256.8141 0001182 273.2766  86.7950 15.27572223 46935","mean_motion":15.27572223,"eccentricity":0.0001182,"inclination_deg":42.9989,"raan_deg":256.8141,"arg_perigee_deg":273.2766,"mean_anomaly_deg":86.795,"bstar":0.00033984,"rev_number":4693,"period_min":94.26722863368,"perigee_km":482.26138832511,"apogee_km":483.88337822331,"semimajor_km":6861.2093832742,"source":"CELESTRAK","updated_at":"2026-09-21T09:00:35.925813Z"}}